Tracking 21605 objects as of 26-Oct-2020
HD Live streaming from Space Station
objects crossing your sky now

LUCKY-7

Track LUCKY-7 now!
10-day predictions
LUCKY-7 is classified as:


NORAD ID: 44406
Int'l Code: 2019-038W
Perigee: 518.4 km
Apogee: 553.8 km
Inclination: 97.6 °
Period: 95.2 minutes
Semi major axis: 6907 km
RCS: Unknown
Launch date: July 5, 2019
Source: United States (US)
Launch site: VOSTOCHNY COSMODROME (VOSTO)

Uplink (MHz):
Downlink (MHz): 437.525
Beacon (MHz):
Mode: 4k8/9k6 FSK
Call sign:
Status: Active

aabbcc
Your satellite tracking list
Your tracking list is empty




NASA's NSSDC Master Catalog

Two Line Element Set (TLE):
1 44406U 19038W   20300.48030012  .00001252  00000-0  75450-4 0  9997
2 44406  97.5564 260.3189 0025613  37.6149 322.6867 15.12386027 72370
Source of the keplerian elements: AFSPC